This is the latest recevied weather packets stored in our database for station/object IZ5MMH-4. If no packets are shown the sender has not sent any weather packets the latest 10 day(s).
| Time | Temp. | Humidity | Pressure | Rain* | Wind** | Luminosity | Snow |
|---|---|---|---|---|---|---|---|
| 1777718678 | 21.11° C | 42% | 1026.3 hPa | - | - | - | - |
| 1777718080 | 21.11° C | 41% | 1026.4 hPa | - | - | - | - |
| 1777717478 | 21.11° C | 39% | 1026.4 hPa | - | - | - | - |
| 1777716879 | 21.11° C | 38% | 1026.4 hPa | - | - | - | - |
| 1777716279 | 20.56° C | 38% | 1026.4 hPa | - | - | - | - |
| 1777715679 | 20.56° C | 37% | 1026.6 hPa | - | - | - | - |
| 1777715079 | 20.56° C | 38% | 1026.7 hPa | - | - | - | - |
| 1777714478 | 20° C | 38% | 1026.8 hPa | - | - | - | - |
| 1777713878 | 20° C | 37% | 1026.8 hPa | - | - | - | - |
| 1777713278 | 20° C | 36% | 1026.9 hPa | - | - | - | - |
| 1777712679 | 20° C | 38% | 1026.8 hPa | - | - | - | - |
| 1777712079 | 20° C | 33% | 1026.9 hPa | - | - | - | - |
| 1777711479 | 19.44° C | 34% | 1027 hPa | - | - | - | - |
| 1777710879 | 19.44° C | 33% | 1027 hPa | - | - | - | - |
| 1777710278 | 18.89° C | 33% | 1027.1 hPa | - | - | - | - |
| 1777709678 | 18.89° C | 34% | 1027.1 hPa | - | - | - | - |
| 1777709078 | 18.89° C | 33% | 1027.1 hPa | - | - | - | - |
| 1777708479 | 18.33° C | 34% | 1027.2 hPa | - | - | - | - |
| 1777707879 | 18.33° C | 36% | 1027.2 hPa | - | - | - | - |
| 1777707278 | 18.33° C | 36% | 1027.3 hPa | - | - | - | - |
| 1777706678 | 17.78° C | 38% | 1027.3 hPa | - | - | - | - |
| 1777706078 | 17.78° C | 38% | 1027.6 hPa | - | - | - | - |
| 1777705479 | 17.22° C | 39% | 1027.6 hPa | - | - | - | - |
| 1777704879 | 17.22° C | 38% | 1027.6 hPa | - | - | - | - |
| 1777704278 | 16.67° C | 37% | 1027.8 hPa | - | - | - | - |
* Rain since midnight (hover to see other rain measurements)
** Current wind speed in m/s (hover to see current wind gust speed)